Regional Weather Roundup
Issued by NWS

Home | Current Version | Previous Version | Graphics & Text | Print | Product List | Glossary Off
Versions: 1 2 3 4 5 6 7 8 9 10 11 12 13 14 15 16 17 18 19 20 21 22 23 24 25 26 27 28 29 30 31 32 33 34 35 36 37 38 39 40 41 42 43 44 45 46 47 48 49 50

000
ASUS43 KIND 280209
RWRIN

WEATHER ROUNDUP FOR INDIANA
NATIONAL WEATHER SERVICE INDIANAPOLIS IN
1000 PM EDT MON MAR 27 2017

NOTE: "FAIR" INDICATES FEW OR NO CLOUDS BELOW 12,000 FEET WITH NO
SIGNIFICANT WEATHER AND/OR OBSTRUCTIONS TO VISIBILITY.

* - STATION DOES NOT REPORT WEATHER SUCH AS PRECIPITATION OR FOG.

+ - STATION NOT QUALITY CONTROLLED BY THE NATIONAL WEATHER SERVICE.
    USE DATA WITH CAUTION...ESPECIALLY DEWPOINT AND RELATIVE
    HUMIDITY OBSERVATIONS.

INZ001>003-010>013-019-020-280300-
NORTHWEST INDIANA

CITY           SKY/WX    TMP DP  RH WIND       PRES   REMARKS
GARY /AIRPORT/ CLOUDY    41  39  93 N6        29.95S
KNOX *+        CLOUDY    46  37  71 N8        29.92R
LA PORTE +     CLOUDY    45  43  93 N9        29.93R
MICHIGAN CITY+ CLOUDY    41  41 100 N7        29.95R
MONTICELLO +   RAIN      55  52  90 N8        29.88R
RENSSELAER +   RAIN      48  46  93 N10       29.91R
VALPARAISO     CLOUDY    45  43  93 N7        29.93S

$$

LMZ046-743>745-280300-
SOUTHERN LAKE MICHIGAN

STATION/POSITION TIME  TEMP    WIND        PRES    WAVE
                       AIR SEA DIR/SP/G            HT
                 (UTC) (F)     (DEG/KT/KT) (MB)    (FT)
BURNS HARBOR     0140   39      30/  7/  9 1014.6R
MICHIGAN CITY    0140   38      30/ 14/ 15   N/A

$$

INZ004-005-014>016-021>024-280300-
NORTH CENTRAL INDIANA

CITY           SKY/WX    TMP DP  RH WIND       PRES   REMARKS
GOSHEN         CLOUDY    53  48  83 N8        29.91R
LOGANSPORT +   CLOUDY    54  52  94 NE7       29.89R
PERU/GRISSOM   CLOUDY    55  55 100 NE8       29.87R FOG
ROCHESTER +    CLOUDY    57  54  88 N7        29.90R
SOUTH BEND     CLOUDY    46  44  93 N6        29.93R
WARSAW +       CLOUDY    52  50  93 N5        29.91R

$$

INZ006>009-017-018-025>027-280300-
NORTHEAST INDIANA

CITY           SKY/WX    TMP DP  RH WIND       PRES   REMARKS
ANGOLA *+      CLOUDY    52  39  62 N5        29.91R
AUBURN +       CLOUDY    54  50  87 CALM      29.91R
FORT WAYNE     CLOUDY    57  51  80 NE6       29.89R
HUNTINGTON +   CLOUDY    54  53  96 NE3       29.89R
KENDALLVILLE + CLOUDY    53  50  92 N5        29.91R

$$

INZ028-029-035-036-043>045-051>053-280300-
WEST CENTRAL INDIANA

CITY           SKY/WX    TMP DP  RH WIND       PRES   REMARKS
CRAWFORDSVL +  DRIZZLE   54  54 100 N6        29.85R
GREENCASTLE +  CLOUDY    54  54 100 NE6       29.84R
LAFAYETTE      CLOUDY    54  54 100 N8        29.87R
TERRE HAUTE    CLOUDY    57  53  86 N6        29.82R

$$

INZ030>032-037>040-046>048-054>057-064-065-280300-
CENTRAL INDIANA

CITY           SKY/WX    TMP DP  RH WIND       PRES   REMARKS
CP ATTERBURY + CLOUDY    57  54  88 SW7       29.83R
COLUMBUS       LGT RAIN  55  55 100 CALM      29.83R FOG
FISHERS *+     CLOUDY    55  55 100 CALM      29.84S
FRANKFORT +    LGT RAIN  58  56  92 NE9       29.87R
INDIANAPOLIS   LGT RAIN  56  54  93 N7        29.82S
-EAGLE CREEK   LGT RAIN  57  54  89 N6        29.83R
KOKOMO +       CLOUDY    55  54  96 N13       29.87S
MARION +       CLOUDY    55  53  91 NE12      29.87R FOG
MT COMFORT *+  CLOUDY    55  54  94 NE6       29.84S
SHELBYVILLE    LGT RAIN  58  54  86 CALM      29.82R
ZIONSVILLE +   RAIN      55  54  95 NE8       29.85S

$$

INZ033-034-041-042-049-050-058-059-280300-
EAST CENTRAL INDIANA

CITY           SKY/WX    TMP DP  RH WIND       PRES   REMARKS
MUNCIE         CLOUDY    59  53  80 NE8       29.85R
RICHMOND +     LGT RAIN  55  54  94 SE13      29.85R

$$

INZ060-061-067>069-081>083-085>088-280300-
SOUTHWEST INDIANA

CITY           SKY/WX    TMP DP  RH WIND       PRES   REMARKS
EVANSVILLE     PTCLDY    55  53  93 SW5       29.84R
HUNTINGBURG *+ CLOUDY    55  53  93 S6        29.84R
WASHINGTON +   CLOUDY    56  54  94 MISG      29.82R

$$

INZ062-063-066-070>080-084-089>092-280300-
SOUTH CENTRAL AND SOUTHEAST INDIANA

CITY           SKY/WX    TMP DP  RH WIND       PRES   REMARKS
BEDFORD +      CLOUDY    55  52  88 S3        29.82R
BLOOMINGTON    LGT RAIN  57  55  93 SE5       29.83R
MADISON *+     CLOUDY    57  55  94 S6        29.86R
NORTH VERNON + CLOUDY   N/A N/A N/A SE5       29.84S
SEYMOUR +      CLOUDY    54  54 100 CALM      29.83R

$$





USA.gov is the U.S. government's official web portal to all federal, state and local government web resources and services.